When you browse on this site, cookies collect data to enhance your experience and personalize the content and advertising you see.
Visit our Privacy Policy to learn more. By continuing to use the site, you agree to this use of cookies and data.
  • în România
  • Lista ţărilor
  • Pe 7 zile
  • Temperatura apei
  • Meteo pe hartă
  • Widget-uri
  • user-avatar
    Intrare

    Meteo pe oră la Carryduff

    Astăzi, 22 Februarie, Sâmbătă

    Timp Temperatura Precipitaţii Vânt Presiune Umiditate
    00:00 +7°C° 0 mm 11 m/s 760 mmHg 84%
    01:00 +7°C° 0.5 mm 12 m/s 760 mmHg 86%
    02:00 +8°C° 0.5 mm 13 m/s 759 mmHg 88%
    03:00 +8°C° 0.5 mm 14 m/s 758 mmHg 91%
    04:00 +8°C° 0.3 mm 14 m/s 758 mmHg 91%
    05:00 +9°C° 0.3 mm 14 m/s 758 mmHg 91%
    06:00 +9°C° 0.3 mm 14 m/s 759 mmHg 91%
    07:00 +8°C° 0.1 mm 13 m/s 759 mmHg 88%
    08:00 +8°C° 0.1 mm 12 m/s 760 mmHg 84%
    09:00 +7°C° 0.1 mm 12 m/s 760 mmHg 81%
    10:00 +8°C° 0 mm 12 m/s 761 mmHg 79%
    11:00 +8°C° 0 mm 12 m/s 762 mmHg 76%
    12:00 +8°C° 0 mm 12 m/s 762 mmHg 74%
    13:00 +8°C° 0 mm 12 m/s 763 mmHg 74%
    14:00 +7°C° 0 mm 12 m/s 763 mmHg 74%
    15:00 +7°C° 0 mm 11 m/s 763 mmHg 74%
    16:00 +7°C° 0 mm 11 m/s 763 mmHg 76%
    17:00 +6°C° 0 mm 10 m/s 763 mmHg 78%
    18:00 +6°C° 0 mm 10 m/s 764 mmHg 79%
    19:00 +6°C° 0 mm 9 m/s 764 mmHg 81%
    20:00 +6°C° 0 mm 9 m/s 764 mmHg 83%
    21:00 +6°C° 0 mm 8 m/s 764 mmHg 85%
    22:00 +6°C° 0.3 mm 8 m/s 764 mmHg 87%
    23:00 +6°C° 0.3 mm 8 m/s 763 mmHg 90%

    Mâine, 23 Februarie, Duminică

    Timp Temperatura Precipitaţii Vânt Presiune Umiditate
    00:00 +6°C° 0.3 mm 8 m/s 763 mmHg 92%
    01:00 +6°C° 1.4 mm 8 m/s 761 mmHg 94%
    02:00 +7°C° 1.4 mm 8 m/s 760 mmHg 95%
    03:00 +8°C° 1.4 mm 7 m/s 758 mmHg 96%
    04:00 +8°C° 0.5 mm 10 m/s 758 mmHg 94%
    05:00 +9°C° 0.5 mm 13 m/s 757 mmHg 92%
    06:00 +10°C° 0.5 mm 16 m/s 756 mmHg 90%
    07:00 +10°C° 0.3 mm 15 m/s 757 mmHg 90%
    08:00 +10°C° 0.3 mm 15 m/s 757 mmHg 91%
    09:00 +9°C° 0.3 mm 14 m/s 757 mmHg 91%
    10:00 +9°C° 0.1 mm 12 m/s 759 mmHg 87%
    11:00 +8°C° 0.1 mm 10 m/s 760 mmHg 84%
    12:00 +9°C° 0.1 mm 8 m/s 761 mmHg 80%
    13:00 +8°C° 0 mm 7 m/s 762 mmHg 78%
    14:00 +8°C° 0 mm 7 m/s 763 mmHg 75%
    15:00 +7°C° 0 mm 6 m/s 763 mmHg 72%
    16:00 +6°C° 0 mm 5 m/s 764 mmHg 75%
    17:00 +5°C° 0 mm 3 m/s 765 mmHg 77%
    18:00 +6°C° 0 mm 2 m/s 766 mmHg 79%
    19:00 +6°C° 0 mm 2 m/s 766 mmHg 78%
    20:00 +6°C° 0 mm 2 m/s 765 mmHg 77%
    21:00 +7°C° 0 mm 1 m/s 765 mmHg 76%
    22:00 +5°C° 0 mm 3 m/s 765 mmHg 78%
    23:00 +5°C° 0 mm 4 m/s 764 mmHg 80%

    Poimâine, 24 Februarie, Luni

    Timp Temperatura Precipitaţii Vânt Presiune Umiditate
    00:00 +5°C° 0 mm 5 m/s 764 mmHg 81%
    01:00 +5°C° 0.3 mm 6 m/s 762 mmHg 86%
    02:00 +7°C° 0.3 mm 6 m/s 761 mmHg 91%
    03:00 +8°C° 0.3 mm 6 m/s 760 mmHg 97%
    04:00 +8°C° 0 mm 7 m/s 759 mmHg 95%
    05:00 +7°C° 0 mm 8 m/s 758 mmHg 93%
    06:00 +7°C° 0 mm 9 m/s 757 mmHg 91%
    07:00 +7°C° 0.2 mm 10 m/s 756 mmHg 91%
    08:00 +8°C° 0.2 mm 11 m/s 755 mmHg 91%
    09:00 +8°C° 0.2 mm 12 m/s 754 mmHg 91%
    10:00 +8°C° 1.5 mm 12 m/s 754 mmHg 91%
    11:00 +8°C° 1.5 mm 12 m/s 754 mmHg 91%
    12:00 +8°C° 1.5 mm 12 m/s 753 mmHg 91%
    13:00 +7°C° 0.1 mm 12 m/s 753 mmHg 87%
    14:00 +5°C° 0.1 mm 12 m/s 753 mmHg 83%
    15:00 +5°C° 0.1 mm 12 m/s 753 mmHg 79%
    16:00 +4°C° 0 mm 11 m/s 754 mmHg 77%
    17:00 +4°C° 0 mm 11 m/s 754 mmHg 75%
    18:00 +3°C° 0 mm 11 m/s 754 mmHg 73%
    19:00 +3°C° 0 mm 10 m/s 755 mmHg 73%
    20:00 +3°C° 0 mm 10 m/s 755 mmHg 74%
    21:00 +3°C° 0 mm 10 m/s 755 mmHg 74%
    22:00 +2°C° 0 mm 10 m/s 755 mmHg 75%
    23:00 +2°C° 0 mm 10 m/s 754 mmHg 76%

    25 Februarie, Marţi

    Timp Temperatura Precipitaţii Vânt Presiune Umiditate
    00:00 +2°C° 0 mm 10 m/s 754 mmHg 76%
    01:00 +2°C° 0.1 mm 9 m/s 754 mmHg 76%
    02:00 +2°C° 0.1 mm 9 m/s 754 mmHg 75%
    03:00 +1°C° 0.1 mm 9 m/s 753 mmHg 75%
    04:00 +1°C° 0.1 mm 9 m/s 753 mmHg 78%
    05:00 +1°C° 0.1 mm 9 m/s 753 mmHg 81%
    06:00 +1°C° 0.1 mm 8 m/s 753 mmHg 83%
    07:00 +1°C° 0.1 mm 8 m/s 753 mmHg 80%
    08:00 +2°C° 0.1 mm 8 m/s 752 mmHg 77%
    09:00 +2°C° 0.1 mm 8 m/s 752 mmHg 74%
    10:00 +4°C° 0.1 mm 8 m/s 752 mmHg 72%
    11:00 +3°C° 0.1 mm 9 m/s 752 mmHg 71%
    12:00 +5°C° 0.1 mm 9 m/s 751 mmHg 69%
    13:00 +5°C° 0.2 mm 9 m/s 751 mmHg 71%
    14:00 +5°C° 0.2 mm 8 m/s 750 mmHg 73%
    15:00 +4°C° 0.2 mm 8 m/s 749 mmHg 74%
    16:00 +2°C° 0.7 mm 9 m/s 749 mmHg 78%
    17:00 +2°C° 0.7 mm 10 m/s 748 mmHg 81%
    18:00 +1°C° 0.7 mm 11 m/s 748 mmHg 84%
    19:00 -1°C° 0.1 mm 11 m/s 748 mmHg 82%
    20:00 0°C° 0.1 mm 10 m/s 749 mmHg 79%
    21:00 -2°C° 0.1 mm 10 m/s 749 mmHg 77%
    22:00 -2°C° 0.1 mm 10 m/s 749 mmHg 80%
    23:00 -3°C° 0.1 mm 10 m/s 750 mmHg 82%

    26 Februarie, Miercuri

    Timp Temperatura Precipitaţii Vânt Presiune Umiditate
    00:00 -3°C° 0.1 mm 10 m/s 750 mmHg 85%
    01:00 -3°C° 0.1 mm 11 m/s 750 mmHg 83%
    02:00 -3°C° 0.1 mm 11 m/s 751 mmHg 81%
    03:00 -3°C° 0.1 mm 11 m/s 751 mmHg 79%
    04:00 -3°C° 0 mm 11 m/s 752 mmHg 78%
    05:00 -3°C° 0 mm 10 m/s 752 mmHg 77%
    06:00 -3°C° 0 mm 9 m/s 753 mmHg 77%
    07:00 -1°C° 0.1 mm 9 m/s 754 mmHg 75%
    08:00 0°C° 0.1 mm 10 m/s 755 mmHg 73%
    09:00 +1°C° 0.1 mm 11 m/s 755 mmHg 72%
    10:00 +2°C° 0 mm 10 m/s 756 mmHg 69%
    11:00 +2°C° 0 mm 10 m/s 757 mmHg 66%
    12:00 +3°C° 0 mm 10 m/s 757 mmHg 63%
    13:00 +3°C° 0 mm 10 m/s 758 mmHg 63%
    14:00 +3°C° 0 mm 9 m/s 758 mmHg 63%
    15:00 +4°C° 0 mm 8 m/s 758 mmHg 63%
    16:00 +3°C° 0 mm 7 m/s 759 mmHg 67%
    17:00 +2°C° 0 mm 6 m/s 759 mmHg 70%
    18:00 +1°C° 0 mm 5 m/s 759 mmHg 73%
    19:00 +1°C° 0 mm 5 m/s 759 mmHg 74%
    20:00 +1°C° 0 mm 4 m/s 759 mmHg 74%
    21:00 +1°C° 0 mm 4 m/s 759 mmHg 75%
    22:00 +1°C° 0.1 mm 5 m/s 758 mmHg 78%
    23:00 +1°C° 0.1 mm 5 m/s 757 mmHg 81%

    27 Februarie, Joi

    Timp Temperatura Precipitaţii Vânt Presiune Umiditate
    00:00 +1°C° 0.1 mm 6 m/s 756 mmHg 84%
    01:00 0°C° 2.3 mm 7 m/s 754 mmHg 89%
    02:00 0°C° 2.3 mm 8 m/s 752 mmHg 93%
    03:00 -1°C° 2.3 mm 9 m/s 750 mmHg 98%
    04:00 +1°C° 2.9 mm 8 m/s 749 mmHg 98%
    05:00 +4°C° 2.9 mm 8 m/s 747 mmHg 98%
    06:00 +5°C° 2.9 mm 8 m/s 746 mmHg 98%
    07:00 +6°C° 1 mm 9 m/s 746 mmHg 97%
    08:00 +7°C° 1 mm 11 m/s 746 mmHg 97%
    09:00 +8°C° 1 mm 12 m/s 745 mmHg 96%
    10:00 +8°C° 0.1 mm 13 m/s 746 mmHg 93%
    11:00 +9°C° 0.1 mm 13 m/s 746 mmHg 91%
    12:00 +9°C° 0.1 mm 14 m/s 747 mmHg 88%
    13:00 +9°C° 0 mm 14 m/s 747 mmHg 87%
    14:00 +8°C° 0 mm 13 m/s 747 mmHg 87%
    15:00 +8°C° 0 mm 13 m/s 748 mmHg 86%
    16:00 +7°C° 0 mm 12 m/s 748 mmHg 86%
    17:00 +7°C° 0 mm 12 m/s 749 mmHg 86%
    18:00 +7°C° 0 mm 11 m/s 749 mmHg 86%
    19:00 +6°C° 0 mm 9 m/s 750 mmHg 86%
    20:00 +5°C° 0 mm 8 m/s 750 mmHg 86%
    21:00 +5°C° 0 mm 7 m/s 751 mmHg 85%
    22:00 +5°C° 0 mm 6 m/s 751 mmHg 85%
    23:00 +4°C° 0 mm 6 m/s 752 mmHg 85%
    Arată mai mult